Weather History for Ardmore, OK

Change the Weather History Date:

Saturday, March 23, 2013

  Actual Average Record
Temperature  
Mean Temperature 45 °F -  
Max Temperature 48 °F 64 °F 78 °F (1998)
Min Temperature 42 °F 45 °F 28 °F (2006)
Degree Days  
Heating Degree Days 20    
Moisture  
Dew Point 43 °F    
Average Humidity 92    
Maximum Humidity 93    
Minimum Humidity 87    
Precipitation  
Precipitation 0.00 in - - ()
Sea Level Pressure  
Sea Level Pressure 29.83 in    
Wind  
Wind Speed 7 mph (NE)    
Max Wind Speed 17 mph    
Max Gust Speed 21 mph    
Visibility 6 miles    
Events Thunderstorm    
Averages and records for this station are not official NWS values.
T = Trace of Precipitation, MM = Missing Value Source: NWS Daily Summary

Daily Weather History Graph

Daily Weather History Graph

Search for Another Location

Airport:

Trip Planner

Search our weather history database for the weather conditions in past years. The results will help you decide how hot, cold, wet, or windy it might be!

Date:

Astronomy

Mar. 23, 2013 Rise Set
Actual Time 7:27 AM CDT 7:42 PM CDT
Civil Twilight 7:02 AM CDT 8:07 PM CDT
Nautical Twilight 6:32 AM CDT 8:36 PM CDT
Astronomical Twilight 6:03 AM CDT 9:06 PM CDT
Moon 4:18 PM CDT (3/23) 4:55 AM CDT (3/23)
Length of Visible Light 13h 05m
Length of Day
12h 15m
Waxing Gibbous, 85% of the Moon is Illuminated
Mar 23
Waxing Gibbous
Mar 27
Full
Apr 2
Last Quarter
Apr 10
New
Apr 18
First Quarter

Hourly Weather History & Observations

Time (CDT) Temp. Windchill Dew Point Humidity Pressure Visibility Wind Dir Wind Speed Gust Speed Precip Events Conditions
12:15 AM 44.6 °F 40.2 °F 41.0 °F 87% 29.87 in 7.0 mi NNE 8.1 mph - N/A   Overcast
12:35 AM 44.6 °F 40.7 °F 41.0 °F 87% 29.86 in 7.0 mi NE 6.9 mph - N/A   Overcast
12:55 AM 44.6 °F 42.2 °F 42.8 °F 93% 29.85 in 5.0 mi NE 4.6 mph - N/A   Overcast
1:15 AM 44.6 °F 42.2 °F 42.8 °F 93% 29.86 in 5.0 mi East 4.6 mph - N/A   Overcast
1:35 AM 44.6 °F 41.4 °F 42.8 °F 93% 29.85 in 5.0 mi ENE 5.8 mph - N/A   Overcast
1:55 AM 44.6 °F 41.4 °F 42.8 °F 93% 29.84 in 5.0 mi NE 5.8 mph - N/A   Overcast
2:15 AM 44.6 °F 39.7 °F 42.8 °F 93% 29.83 in 5.0 mi NNE 9.2 mph - N/A   Overcast
2:35 AM 44.6 °F 42.2 °F 42.8 °F 93% 29.83 in 5.0 mi NE 4.6 mph - N/A   Overcast
2:55 AM 44.6 °F 42.2 °F 42.8 °F 93% 29.83 in 5.0 mi East 4.6 mph - N/A   Overcast
3:15 AM 44.6 °F 43.1 °F 42.8 °F 93% 29.84 in 5.0 mi NE 3.5 mph - N/A   Overcast
3:35 AM 44.6 °F 41.4 °F 42.8 °F 93% 29.82 in 7.0 mi ENE 5.8 mph - N/A   Overcast
3:55 AM 44.6 °F 41.4 °F 42.8 °F 93% 29.83 in 5.0 mi NE 5.8 mph - N/A   Overcast
4:15 AM 44.6 °F 40.7 °F 42.8 °F 93% 29.82 in 5.0 mi SE 6.9 mph - N/A   Overcast
4:35 AM 44.6 °F 40.7 °F 42.8 °F 93% 29.81 in 4.0 mi ENE 6.9 mph - N/A   Overcast
4:55 AM 44.6 °F 40.7 °F 42.8 °F 93% 29.80 in 4.0 mi East 6.9 mph - N/A   Overcast
5:15 AM 44.6 °F 42.2 °F 42.8 °F 93% 29.80 in 4.0 mi East 4.6 mph - N/A   Overcast
5:35 AM 44.6 °F 42.2 °F 42.8 °F 93% 29.81 in 4.0 mi ENE 4.6 mph - N/A   Overcast
5:55 AM 44.6 °F 42.2 °F 42.8 °F 93% 29.82 in 4.0 mi ENE 4.6 mph - N/A   Overcast
6:15 AM 44.6 °F - 42.8 °F 93% 29.83 in 4.0 mi Calm Calm - N/A   Overcast
6:35 AM 44.6 °F - 42.8 °F 93% 29.85 in 4.0 mi Calm Calm - N/A   Overcast
2:55 PM 48.2 °F - 46.4 °F 93% 29.75 in 10.0 mi North 17.3 mph - N/A   Overcast
11:35 PM 42.8 °F 35.1 °F 41.0 °F 93% 29.85 in 10.0 mi NNW 16.1 mph - N/A Thunderstorm Overcast
11:55 PM 42.8 °F 35.4 °F 41.0 °F 93% 29.86 in 10.0 mi NW 15.0 mph 20.7 mph N/A Thunderstorm Thunderstorm